Weather History for Wayne, NE

Change the Weather History Date:

Monday, December 31, 2012

  Actual Average (KOFK) Record (KOFK)
Temperature  
Mean Temperature 10 °F 22 °F  
Max Temperature 22 °F 32 °F 72 °F (1904)
Min Temperature -1 °F 12 °F -22 °F (1967)
Degree Days  
Heating Degree Days 54 43  
Month to date heating degree days 1262  
Since 1 July heating degree days 2706  
Cooling Degree Days 0 0  
Month to date cooling degree days 0  
Year to date cooling degree days 915  
Moisture  
Dew Point 13 °F    
Average Humidity 84    
Maximum Humidity 92    
Minimum Humidity 73    
Precipitation  
Precipitation 0.00 in 0.02 in 0.90 in (1931)
Month to date precipitation 0.75  
Year to date precipitation 27.41  
Snow  
Snow 0.00 in 0.20 in - ()
Month to date snowfall 6.0  
Since 1 July snowfall 10.9  
Snow Depth -    
Sea Level Pressure  
Sea Level Pressure 30.18 in    
Wind  
Wind Speed 9 mph (North)    
Max Wind Speed 16 mph    
Max Gust Speed 21 mph    
Visibility 9 miles    
Events      
T = Trace of Precipitation, MM = Missing Value Source: NWS Daily Summary

Daily Weather History Graph

Daily Weather History Graph

Search for Another Location

Airport:

Trip Planner

Search our weather history database for the weather conditions in past years. The results will help you decide how hot, cold, wet, or windy it might be!

Date:

Astronomy

Dec. 31, 2012 Rise Set
Actual Time 7:56 AM CST 5:05 PM CST
Civil Twilight 7:24 AM CST 5:37 PM CST
Nautical Twilight 6:49 AM CST 6:12 PM CST
Astronomical Twilight 6:15 AM CST 6:46 PM CST
Moon 8:41 PM CST (12/31) 9:35 AM CST (12/31)
Length of Visible Light 10h 12m
Length of Day
9h 09m
Waning Gibbous, 90% of the Moon is Illuminated
Dec 31
Waning Gibbous
Jan 4
Last Quarter
Jan 11
New
Jan 18
First Quarter
Jan 26
Full

Hourly Weather History & Observations

Time (CST) Temp. Windchill Dew Point Humidity Pressure Visibility Wind Dir Wind Speed Gust Speed Precip Events Conditions
12:15 AM 20.8 °F 8.4 °F 16.5 °F 83% 30.10 in 10.0 mi NW 12.7 mph - N/A   Clear
12:35 AM 19.6 °F 6.8 °F 15.8 °F 85% 30.10 in 10.0 mi NNW 12.7 mph - N/A   Clear
12:55 AM 19.4 °F 6.6 °F 15.6 °F 85% 30.09 in 10.0 mi NNW 12.7 mph - N/A   Clear
1:15 AM 19.2 °F 6.4 °F 15.3 °F 85% 30.10 in 10.0 mi NNW 12.7 mph - N/A   Clear
1:35 AM 18.5 °F 6.1 °F 14.7 °F 85% 30.11 in 10.0 mi NNW 11.5 mph - N/A   Clear
1:55 AM 18.1 °F 5.6 °F 14.4 °F 85% 30.14 in 10.0 mi NNW 11.5 mph - N/A   Scattered Clouds
2:15 AM 18.5 °F 6.1 °F 15.4 °F 88% 30.14 in 10.0 mi North 11.5 mph - N/A   Mostly Cloudy
2:35 AM 19.0 °F 4.5 °F 16.7 °F 91% 30.14 in 7.0 mi North 16.1 mph 20.7 mph N/A   Overcast
2:55 AM 19.2 °F 5.3 °F 17.2 °F 92% 30.14 in 5.0 mi North 15.0 mph - N/A   Overcast
3:15 AM 19.2 °F 7.0 °F 17.2 °F 92% 30.15 in 5.0 mi North 11.5 mph 18.4 mph N/A   Overcast
3:35 AM 17.8 °F 8.5 °F 15.3 °F 90% 30.15 in 7.0 mi North 6.9 mph - N/A   Overcast
3:55 AM 19.0 °F 8.2 °F 17.1 °F 92% 30.15 in 5.0 mi North 9.2 mph 16.1 mph N/A   Overcast
4:15 AM 19.8 °F 8.3 °F 17.6 °F 91% 30.16 in 5.0 mi North 10.4 mph - N/A   Overcast
4:35 AM 19.9 °F 7.9 °F 17.6 °F 91% 30.17 in 10.0 mi North 11.5 mph - N/A   Overcast
4:55 AM 19.9 °F 7.9 °F 17.6 °F 91% 30.17 in 10.0 mi North 11.5 mph - N/A   Overcast
5:15 AM 20.1 °F 7.5 °F 17.6 °F 90% 30.17 in 10.0 mi North 12.7 mph - N/A   Overcast
5:35 AM 20.1 °F 8.8 °F 17.4 °F 89% 30.17 in 10.0 mi North 10.4 mph - N/A   Overcast
6:15 AM 20.5 °F 9.2 °F 17.6 °F 89% 30.17 in 10.0 mi North 10.4 mph - N/A   Overcast
6:55 AM 20.7 °F 9.5 °F 17.6 °F 88% 30.16 in 10.0 mi North 10.4 mph - N/A   Overcast
7:15 AM 20.7 °F 9.5 °F 17.6 °F 88% 30.17 in 10.0 mi North 10.4 mph - N/A   Overcast
7:35 AM 20.7 °F 9.5 °F 17.6 °F 88% 30.17 in 10.0 mi North 10.4 mph - N/A   Overcast
7:55 AM 20.7 °F 9.5 °F 17.6 °F 88% 30.17 in 10.0 mi North 10.4 mph - N/A   Overcast
8:15 AM 20.3 °F 9.0 °F 16.5 °F 85% 30.16 in 10.0 mi North 10.4 mph 17.3 mph N/A   Overcast
8:35 AM 20.3 °F 8.3 °F 16.5 °F 85% 30.17 in 10.0 mi North 11.5 mph - N/A   Overcast
8:55 AM 20.3 °F 9.0 °F 16.7 °F 86% 30.17 in 10.0 mi North 10.4 mph - N/A   Overcast
9:15 AM 20.5 °F 9.2 °F 17.1 °F 87% 30.17 in 10.0 mi North 10.4 mph - N/A   Overcast
9:35 AM 20.8 °F 9.7 °F 17.2 °F 86% 30.18 in 10.0 mi North 10.4 mph - N/A   Overcast
9:55 AM 21.0 °F 10.6 °F 17.2 °F 85% 30.19 in 10.0 mi NNE 9.2 mph 16.1 mph N/A   Overcast
10:15 AM 20.8 °F 12.1 °F 16.7 °F 84% 30.20 in 10.0 mi NNE 6.9 mph - N/A   Overcast
10:35 AM 20.7 °F 14.2 °F 16.3 °F 83% 30.20 in 10.0 mi NNE 4.6 mph - N/A   Overcast
10:55 AM 21.6 °F 14.0 °F 16.5 °F 81% 30.20 in 10.0 mi North 5.8 mph - N/A   Overcast
11:15 AM 21.7 °F 13.2 °F 16.2 °F 79% 30.21 in 10.0 mi NNE 6.9 mph - N/A   Overcast
11:35 AM 22.1 °F 8.9 °F 15.8 °F 77% 30.20 in 10.0 mi NNE 15.0 mph - N/A   Overcast
11:55 AM 22.1 °F 10.6 °F 15.6 °F 76% 30.20 in 10.0 mi North 11.5 mph - N/A   Overcast
12:15 PM 22.1 °F 11.3 °F 15.4 °F 76% 30.20 in 10.0 mi North 10.4 mph - N/A   Overcast
12:35 PM 21.7 °F 11.5 °F 14.7 °F 74% 30.20 in 10.0 mi North 9.2 mph - N/A   Scattered Clouds
12:55 PM 21.2 °F 11.7 °F 14.0 °F 74% 30.19 in 10.0 mi NNE 8.1 mph - N/A   Clear
1:15 PM 21.2 °F 11.7 °F 13.6 °F 73% 30.18 in 10.0 mi North 8.1 mph - N/A   Clear
1:35 PM 21.2 °F 11.7 °F 13.8 °F 73% 30.17 in 10.0 mi North 8.1 mph - N/A   Clear
1:55 PM 21.2 °F 11.7 °F 13.6 °F 73% 30.17 in 10.0 mi North 8.1 mph - N/A   Clear
2:15 PM 21.0 °F 13.4 °F 13.6 °F 73% 30.16 in 10.0 mi North 5.8 mph - N/A   Clear
2:35 PM 21.2 °F 12.6 °F 14.0 °F 74% 30.15 in 10.0 mi North 6.9 mph - N/A   Clear
2:55 PM 21.2 °F 14.9 °F 14.0 °F 74% 30.15 in 10.0 mi North 4.6 mph - N/A   Clear
3:15 PM 20.8 °F 12.1 °F 14.4 °F 76% 30.15 in 10.0 mi NNW 6.9 mph - N/A   Clear
3:35 PM 20.3 °F 11.5 °F 14.0 °F 77% 30.15 in 10.0 mi North 6.9 mph - N/A   Clear
3:55 PM 19.9 °F 12.1 °F 14.2 °F 78% 30.15 in 10.0 mi NNW 5.8 mph - N/A   Clear
4:15 PM 19.4 °F 12.8 °F 14.0 °F 80% 30.15 in 10.0 mi NNW 4.6 mph - N/A   Clear
4:35 PM 19.0 °F 12.3 °F 14.0 °F 81% 30.16 in 10.0 mi North 4.6 mph - N/A   Clear
4:55 PM 18.3 °F - 13.8 °F 83% 30.17 in 10.0 mi Calm Calm - N/A   Clear
5:15 PM 17.1 °F - 12.9 °F 84% 30.17 in 10.0 mi Calm Calm - N/A   Clear
5:35 PM 17.2 °F - 13.3 °F 84% 30.18 in 10.0 mi Calm Calm - N/A   Clear
5:55 PM 16.3 °F - 12.7 °F 86% 30.19 in 10.0 mi Calm Calm - N/A   Clear
6:15 PM 15.6 °F - 11.8 °F 85% 30.19 in 10.0 mi Calm Calm - N/A   Clear
6:35 PM 14.9 °F - 11.5 °F 86% 30.20 in 10.0 mi Calm Calm - N/A   Clear
6:55 PM 14.7 °F 9.0 °F 10.8 °F 84% 30.20 in 10.0 mi NW 3.5 mph - N/A   Clear
7:35 PM 11.1 °F - 7.9 °F 87% 30.21 in 10.0 mi Calm Calm - N/A   Scattered Clouds
8:35 PM 9.1 °F - 7.0 °F 91% 30.21 in 10.0 mi Calm Calm - N/A   Clear
8:55 PM 6.8 °F - 4.3 °F 89% 30.21 in 10.0 mi Calm Calm - N/A   Clear
9:35 PM 4.5 °F - 1.9 °F 89% 30.21 in 7.0 mi Calm Calm - N/A   Clear
9:55 PM 3.7 °F - 0.9 °F 88% 30.22 in 10.0 mi Calm Calm - N/A   Clear
10:15 PM 2.8 °F - -0.4 °F 86% 30.23 in 7.0 mi Calm Calm - N/A   Clear
10:35 PM -0.2 °F - -4.0 °F 84% 30.23 in 5.0 mi Calm Calm - N/A   Clear
10:55 PM -0.8 °F - -4.2 °F 85% 30.24 in 7.0 mi Calm Calm - N/A   Clear
11:15 PM -1.1 °F - -4.9 °F 84% 30.25 in 7.0 mi Calm Calm - N/A   Clear
11:35 PM -1.3 °F - -4.9 °F 85% 30.25 in 7.0 mi Calm Calm - N/A   Scattered Clouds
11:55 PM -1.7 °F - -5.8 °F 83% 30.25 in 10.0 mi Calm Calm - N/A   Mostly Cloudy